This demonstration page uses our WeatherBlox Daily Observations layout. Learn more.

Hourly Observations for February 24, 2017

Temp ( °F °C ) Dew Point ( °F °C ) Humidity (%) Winds ( mph kmh ) Pressure ( in mb ) Visibility ( mi km ) Precip ( " mm )
12:15 am 00:15 Cloudy with Mist and Fog 28 -2.5 26 -3.5 93 93 N 17 28 29.83 1010 5 8.0467 0 0
12:35 am 00:35 Cloudy 27 -2.6 25 -3.7 92 92 N 12 19 29.85 1011 7 11.26538 0 0
12:55 am 00:55 Cloudy 27 -2.6 25 -3.8 92 92 N 14 22 29.85 1011 10 16.0934 0 0
1:15 am 01:15 Cloudy 27 -2.7 25 -4 91 91 N 12 19 29.88 1012 10 16.0934 0 0
1:35 am 01:35 Cloudy 27 -3 25 -4.1 92 92 N 15 24 29.88 1012 7 11.26538 0 0
1:55 am 01:55 Cloudy with Mist and Fog 26 -3.1 24 -4.3 92 92 N 15 24 29.88 1012 4 6.43736 0 0
2:15 am 02:15 Cloudy with Mist and Fog 26 -3.2 24 -4.2 93 93 N 14 22 29.88 1012 4 6.43736 0 0
2:35 am 02:35 Cloudy with Mist and Fog 26 -3.3 24 -4.3 93 93 N 13 20 29.88 1012 4 6.43736 0 0
2:55 am 02:55 Cloudy with Mist and Fog 26 -3.5 24 -4.5 93 93 N 14 22 29.91 1013 4 6.43736 0 0
3:15 am 03:15 Cloudy with Mist and Fog 26 -3.5 24 -4.5 93 93 N 12 19 29.91 1013 4 6.43736 0 0
3:35 am 03:35 Cloudy with Mist and Fog 25 -3.7 23 -4.8 92 92 N 12 19 29.91 1013 5 8.0467 0 0
3:55 am 03:55 Cloudy with Mist and Fog 26 -3.6 24 -4.7 92 92 NNW 13 20 29.91 1013 4 6.43736 0 0
4:15 am 04:15 Cloudy with Light Snow 25 -3.7 23 -4.8 92 92 NNW 9 15 29.91 1013 4 6.43736 0 0
4:35 am 04:35 Cloudy with Light Snow 25 -3.8 23 -5 91 91 NNW 9 15 29.91 1013 3 4.82802 0 0
4:55 am 04:55 Cloudy with Light Snow 25 -4 23 -5.1 92 92 NNW 12 19 29.91 1013 2.5 4.02335 0 0
5:15 am 05:15 Cloudy with Light Snow 25 -4 23 -5.1 92 92 N 13 20 29.91 1013 2 3.21868 0.01 0.254
5:35 am 05:35 Cloudy with Light Snow 25 -4 23 -5.1 92 92 N 14 22 29.91 1013 2.5 4.02335 0.01 0.254
5:55 am 05:55 Cloudy with Light Snow 25 -4.1 22 -5.5 90 90 N 14 22 29.91 1013 2.5 4.02335 0.01 0.254
6:15 am 06:15 Cloudy with Light Snow 24 -4.3 22 -5.6 91 91 N 15 24 29.91 1013 2.5 4.02335 0 0
6:35 am 06:35 Cloudy with Light Snow 24 -4.5 22 -5.8 91 91 N 13 20 29.91 1013 1.5 2.41401 0 0
6:55 am 06:55 Cloudy with Light Snow 23 -4.8 21 -6.1 91 91 N 16 26 29.94 1014 1.5 2.41401 0 0
7:15 am 07:15 Cloudy with Light Snow 23 -5 21 -6.2 91 91 N 17 28 29.94 1014 1.5 2.41401 0 0
7:35 am 07:35 Cloudy with Light Snow 23 -5 21 -6.2 91 91 N 18 30 29.94 1014 2 3.21868 0 0
7:55 am 07:55 Cloudy 23 -5.2 20 -6.4 91 91 N 17 28 29.97 1015 N/A 0 0
8:15 am 08:15 Cloudy 23 -5.1 21 -6.2 92 92 N 17 28 30 1016 N/A 0 0
8:35 am 08:35 undefined 22 -5.3 20 -6.5 91 91 N 16 26 30.03 1017 N/A 0 0
8:55 am 08:55 undefined 22 -5.3 20 -6.7 90 90 N 17 28 30.03 1017 N/A 0 0
9:15 am 09:15 undefined 22 -5.3 20 -6.7 90 90 N 20 31 30.06 1018 N/A 0 0
9:35 am 09:35 Cloudy 22 -5.4 20 -6.8 90 90 N 17 28 30.06 1018 N/A 0 0
9:55 am 09:55 undefined 22 -5.5 19 -7.1 89 89 N 17 28 30.06 1018 N/A 0 0
10:15 am 10:15 undefined 22 -5.5 19 -7.1 89 89 N 20 31 30.09 1019 N/A 0 0
10:35 am 10:35 undefined 22 -5.5 19 -7 89 89 N 22 35 30.09 1019 N/A 0 0
10:55 am 10:55 undefined 21 -5.9 18 -7.6 88 88 N 21 33 30.09 1019 N/A 0 0
11:15 am 11:15 undefined 22 -5.5 18 -7.8 84 84 N 17 28 30.09 1019 N/A 0 0
11:35 am 11:35 Cloudy 23 -5.1 18 -7.8 82 82 N 16 26 30.09 1019 N/A 0 0
11:55 am 11:55 Cloudy 23 -5 18 -7.6 82 82 NNW 20 31 30.12 1020 N/A 0 0
12:15 pm 12:15 Cloudy 22 -5.4 17 -8.6 78 78 N 21 33 30.12 1020 N/A 0 0
12:35 pm 12:35 Cloudy 23 -5.2 16 -8.7 77 77 N 18 30 30.12 1020 N/A 0 0
12:55 pm 12:55 Cloudy 23 -5.1 16 -8.8 76 76 N 17 28 30.12 1020 10 16.0934 0 0
1:15 pm 13:15 Cloudy 24 -4.6 17 -8.5 74 74 NNW 22 35 30.12 1020 10 16.0934 0 0
1:35 pm 13:35 Cloudy 24 -4.5 16 -8.8 72 72 N 23 37 30.12 1020 10 16.0934 0 0
1:55 pm 13:55 Cloudy 24 -4.6 15 -9.2 71 71 N 18 30 30.12 1020 10 16.0934 0 0
2:15 pm 14:15 Cloudy 24 -4.4 16 -9.1 70 70 N 21 33 30.12 1020 10 16.0934 0 0
2:35 pm 14:35 Mostly Cloudy 24 -4.3 15 -9.4 68 68 N 21 33 30.12 1020 10 16.0934 0 0
2:55 pm 14:55 Mostly Cloudy 25 -4 16 -9.1 68 68 NNW 16 26 30.12 1020 10 16.0934 0 0
3:15 pm 15:15 Mostly Cloudy 25 -4.1 15 -9.3 67 67 N 21 33 30.15 1021 10 16.0934 0 0
3:35 pm 15:35 Mostly Cloudy 25 -4.1 15 -9.6 66 66 N 18 30 30.15 1021 10 16.0934 0 0
3:55 pm 15:55 Partly Cloudy 25 -3.9 15 -9.7 64 64 NNW 17 28 30.18 1022 10 16.0934 0 0
4:15 pm 16:15 Partly Cloudy 25 -4.1 15 -9.6 66 66 N 16 26 30.18 1022 10 16.0934 0 0
4:35 pm 16:35 Mostly Cloudy 25 -4.1 15 -9.6 66 66 NNW 18 30 30.18 1022 10 16.0934 0 0
4:55 pm 16:55 Mostly Cloudy 24 -4.5 14 -9.9 66 66 NNW 14 22 30.18 1022 10 16.0934 0 0
5:15 pm 17:15 Cloudy 24 -4.5 15 -9.7 67 67 NNW 18 30 30.21 1023 10 16.0934 0 0
5:35 pm 17:35 Mostly Cloudy 23 -4.8 15 -9.5 70 70 NNW 12 19 30.21 1023 10 16.0934 0 0
5:55 pm 17:55 Mostly Cloudy 23 -5.2 15 -9.5 72 72 NNW 14 22 30.21 1023 10 16.0934 0 0
6:15 pm 18:15 Mostly Cloudy 22 -5.3 15 -9.7 72 72 NNW 15 24 30.24 1024 10 16.0934 0 0
6:35 pm 18:35 Partly Cloudy 22 -5.8 15 -9.7 74 74 NNW 10 17 30.27 1025 10 16.0934 0 0
6:55 pm 18:55 Clear 21 -6.2 14 -9.9 75 75 NNW 12 19 30.27 1025 10 16.0934 0 0
7:15 pm 19:15 Clear 21 -6.3 14 -9.9 76 76 NNW 12 19 30.27 1025 10 16.0934 0 0
7:35 pm 19:35 Clear 21 -6.3 15 -9.7 77 77 NNW 9 15 30.27 1025 10 16.0934 0 0
7:55 pm 19:55 Clear 21 -6.2 15 -9.6 77 77 NNW 10 17 30.3 1026 10 16.0934 0 0
8:15 pm 20:15 Clear 21 -6.2 15 -9.7 77 77 NNW 9 15 30.3 1026 10 16.0934 0 0
8:35 pm 20:35 Clear 20 -6.5 14 -10 76 76 NNW 8 13 30.3 1026 10 16.0934 0 0
8:55 pm 20:55 Clear 19 -7.1 13 -10.4 78 78 NNW 8 13 30.3 1026 10 16.0934 0 0
9:15 pm 21:15 Clear 18 -7.8 12 -10.9 79 79 NW 7 11 30.3 1026 10 16.0934 0 0
9:35 pm 21:35 Clear 16 -8.9 12 -11.3 83 83 WNW 8 13 30.33 1027 10 16.0934 0 0
9:55 pm 21:55 Clear 15 -9.3 10 -12 81 81 WNW 7 11 30.33 1027 10 16.0934 0 0
10:15 pm 22:15 Clear 15 -9.4 11 -11.7 84 84 WNW 7 11 30.33 1027 10 16.0934 0 0
10:35 pm 22:35 Clear 15 -9.5 10 -12.1 82 82 WNW 8 13 30.33 1027 10 16.0934 0 0
10:55 pm 22:55 Clear 16 -9 11 -11.6 82 82 WNW 7 11 30.33 1027 10 16.0934 0 0
11:15 pm 23:15 Clear 15 -9.6 10 -12.1 82 82 NW 6 9 30.33 1027 10 16.0934 0 0
11:35 pm 23:35 Clear 14 -10.1 10 -12.5 83 83 NW 8 13 30.33 1027 10 16.0934 0 0
11:55 pm 23:55 Clear 14 -9.9 9 -12.6 81 81 NW 8 13 30.33 1027 10 16.0934 0 0

Powered by AerisWeather